Trenton, NJ

9:30 PM EST on December 08, 2019 (GMT -0500)
Trenton Mercer

Weather History for KTTN - November, 2019

Change the Weather History Date:

Thursday, November 21, 2019

  Actual Average Record
Temperature  
Mean Temperature 44 °F 44 °F  
Max Temperature 53 °F 52 °F 75 °F (1931)
Min Temperature 35 °F 36 °F 15 °F (1879)
Degree Days  
Heating Degree Days 21 21  
Month to date heating degree days 21 375  
Since 1 July heating degree days 229 772  
Cooling Degree Days 0 0  
Month to date cooling degree days 0 0  
Year to date cooling degree days 1163 965  
Moisture  
Dew Point 33 °F    
Average Humidity 62    
Maximum Humidity 73    
Minimum Humidity 48    
Precipitation  
Precipitation 0.00 in 0.10 in 3.10 in (1876)
Month to date precipitation 0.00 2.20  
Year to date precipitation 41.86 41.63  
Sea Level Pressure  
Sea Level Pressure 30.12 in    
Wind  
Wind Speed 6 mph ()    
Max Wind Speed 14 mph    
Max Gust Speed 20 mph    
Visibility 10.0 miles    
Events      
T = Trace of Precipitation, MM = Missing Value Source: Averaged Metar Reports

Daily Weather History Graph

Daily Weather History Graph

Search for Another Location

Airport or City:

Astronomy

Nov. 21, 2019 Rise Set
Actual Time 6:51 AM EST 4:38 PM EST
Civil Twilight 6:22 AM EST 5:07 PM EST
Nautical Twilight 5:48 AM EST 5:40 PM EST
Astronomical Twilight 5:16 AM EST 6:13 PM EST
Moon 12:43 AM EST (11/21) 2:06 PM EST (11/21)
Length of Visible Light 10h 45m
Length of Day
9h 46m
Waning Crescent, 30% of the Moon is Illuminated
Nov 21
Waning Crescent
Nov 26
New
Dec 4
First Quarter
Dec 12
Full
Dec 18
Last Quarter

Hourly Weather History & Observations

Time (EST) Temp. Windchill Dew Point Humidity Pressure Visibility Wind Dir Wind Speed Gust Speed Precip Events Conditions
12:53 AM 43.0 °F 37.2 °F 34.0 °F 71% 30.11 in 10.0 mi NW 10.4 mph - N/A   Overcast
1:53 AM 42.1 °F 37.1 °F 33.1 °F 70% 30.12 in 10.0 mi NNW 8.1 mph - N/A   Clear
2:53 AM 42.1 °F 38.4 °F 30.9 °F 65% 30.14 in 10.0 mi NNW 5.8 mph - N/A   Clear
3:53 AM 41.0 °F 35.2 °F 30.0 °F 65% 30.15 in 10.0 mi NNW 9.2 mph - N/A   Clear
4:53 AM 39.0 °F 35.7 °F 30.0 °F 70% 30.17 in 10.0 mi WNW 4.6 mph - N/A   Clear
5:53 AM 37.0 °F - 28.9 °F 73% 30.18 in 10.0 mi Calm Calm - N/A   Clear
6:53 AM 37.9 °F - 30.0 °F 73% 30.19 in 10.0 mi Calm Calm - N/A   Clear
7:53 AM 39.9 °F 35.8 °F 32.0 °F 73% 30.19 in 10.0 mi NNW 5.8 mph - N/A   Clear
8:53 AM 44.1 °F 41.5 °F 33.1 °F 65% 30.21 in 10.0 mi NW 4.6 mph - N/A   Clear
9:53 AM 46.9 °F - 33.1 °F 59% 30.20 in 10.0 mi NW 5.8 mph - N/A   Clear
10:53 AM 48.9 °F - 33.1 °F 54% 30.19 in 10.0 mi Variable 3.5 mph - N/A   Clear
11:53 AM 51.1 °F - 33.1 °F 50% 30.16 in 10.0 mi NNW 5.8 mph - N/A   Clear
12:53 PM 52.0 °F - 33.1 °F 49% 30.13 in 10.0 mi Variable 4.6 mph - N/A   Clear
1:53 PM 52.0 °F - 34.0 °F 50% 30.12 in 9.0 mi South 6.9 mph - N/A   Clear
3:53 PM 51.1 °F - 33.1 °F 50% 30.09 in 10.0 mi SW 4.6 mph - N/A   Clear
5:53 PM 48.0 °F - 34.0 °F 58% 30.08 in 10.0 mi SSW 3.5 mph - N/A   Clear
6:53 PM 48.0 °F - 34.0 °F 58% 30.08 in 10.0 mi South 8.1 mph - N/A   Clear
7:53 PM 48.0 °F - 34.0 °F 58% 30.07 in 10.0 mi SSW 8.1 mph - N/A   Clear
8:53 PM 46.9 °F - 34.0 °F 61% 30.04 in 10.0 mi South 8.1 mph - N/A   Scattered Clouds
9:53 PM 46.9 °F - 34.0 °F 61% 30.01 in 10.0 mi South 8.1 mph - N/A   Mostly Cloudy
10:53 PM 46.0 °F 42.5 °F 34.0 °F 63% 29.98 in 10.0 mi South 6.9 mph - N/A   Partly Cloudy
11:53 PM 46.0 °F 41.9 °F 34.0 °F 63% 29.97 in 10.0 mi SSW 8.1 mph - N/A   Mostly Cloudy